Theta_e
358 358 358 358 358 357 357 356 354 350 347 346 343 340 336 334 334 335 334 331 328 325 324 325 325 327 326 326 326 326 326 327 328 329 327 328 326 322 323 323 324 327 332
357 358 358 358 357 357 357 354 350 348 346 344 339 335 333 332 333 331 329 327 323 322 323 324 325 325 326 328 326 326 326 326 328 327 328 324 322 319 320 319 321 323 328
357 358 358 358 359 356 354 352 348 346 343 338 334 332 331 331 331 330 327 321 321 322 323 324 325 325 325 325 325 324 324 323 323 323 324 320 320 320 319 318 319 323 328
358 358 359 359 356 354 352 349 346 342 337 334 331 331 330 328 328 327 320 320 321 321 322 323 324 325 326 324 322 322 323 324 322 320 320 320 320 319 319 318 317 318 324
361 360 360 357 354 352 348 345 342 337 332 330 329 329 326 324 324 322 322 321 321 321 321 320 319 316 314 316 321 322 324 322 320 320 320 320 320 321 319 318 316 316 323
363 360 358 354 351 347 345 341 336 332 329 328 328 327 324 321 321 322 323 322 321 321 320 318 318 319 315 312 311 311 313 322 321 321 319 319 319 318 318 318 318 318 318
360 358 353 350 347 344 342 337 333 330 327 327 327 327 325 322 317 320 320 320 321 321 320 320 319 315 321 320 312 313 311 311 315 319 318 317 317 316 318 318 318 319 317
359 354 350 347 346 342 338 334 330 327 326 326 326 326 326 325 313 316 318 321 320 320 320 320 320 319 318 321 321 319 319 319 316 315 315 315 313 314 314 314 315 317 319
356 352 348 347 343 339 336 333 328 324 324 324 325 325 326 325 314 315 318 323 321 321 320 320 319 319 318 311 319 319 318 319 315 314 314 314 315 314 312 313 316 315 316
353 348 347 346 342 336 334 331 326 322 321 321 323 324 324 323 317 317 317 323 323 323 322 321 318 316 319 312 315 319 319 319 318 316 316 316 316 316 312 316 314 315 315
348 348 347 343 338 336 333 329 322 319 320 320 322 322 321 322 313 310 313 326 322 322 322 321 321 315 311 312 311 316 317 318 318 317 318 319 318 319 316 317 316 314 314
348 347 344 341 338 335 329 321 321 321 322 322 322 321 320 321 317 311 315 320 320 320 320 319 319 314 311 311 311 313 314 313 315 316 317 318 316 316 317 316 316 315 313
348 346 343 340 336 331 325 323 322 323 322 322 321 320 320 322 321 316 312 313 317 317 320 318 318 316 315 313 313 313 313 314 316 317 318 317 316 318 316 316 316 316 315
345 344 340 337 334 330 327 325 324 323 322 321 321 320 321 323 323 323 321 320 318 318 317 319 319 318 317 318 318 318 317 318 319 319 317 316 317 317 318 317 316 315 313
343 341 337 337 335 331 330 327 324 323 321 320 320 320 321 322 323 324 325 323 323 321 321 322 322 321 322 322 320 320 321 320 320 320 319 319 318 317 316 315 315 315 314
339 339 338 335 335 334 331 326 323 322 319 319 319 322 321 321 321 322 321 321 321 322 323 323 322 322 323 323 320 320 320 319 318 318 318 318 316 316 315 316 315 315 313
340 339 337 336 336 334 331 327 322 319 319 319 320 321 323 321 320 319 318 318 316 315 317 319 320 321 322 323 322 320 320 319 318 319 318 319 317 316 316 315 315 314 313
339 338 338 337 336 335 332 327 323 320 321 320 319 322 322 321 320 317 314 314 315 315 316 318 319 319 320 322 322 320 320 317 317 317 318 318 317 316 315 315 315 314 312
341 338 338 336 337 335 330 325 323 321 320 318 318 320 320 320 318 318 317 318 319 320 322 322 322 321 322 321 320 319 318 317 317 317 316 316 316 316 315 314 313 310 309
342 339 337 338 335 329 327 324 322 320 320 320 321 321 319 320 319 319 318 319 320 321 321 321 322 322 321 321 319 318 318 317 317 317 317 316 314 313 313 312 311 310 309
340 337 334 334 333 329 326 323 321 320 322 322 322 322 320 320 319 320 321 321 322 323 324 322 321 322 321 320 319 318 317 316 316 314 313 312 312 312 311 310 310 309 309
337 335 333 333 330 326 322 320 321 322 322 322 322 321 321 322 323 322 322 323 323 323 323 323 321 321 320 319 318 316 315 314 313 312 311 311 311 311 310 309 309 309 309
337 334 328 322 321 320 320 321 321 322 322 322 322 323 322 322 321 321 322 322 321 321 321 322 320 319 318 317 315 314 313 312 311 310 309 309 310 310 310 309 310 310 309
331 326 322 321 320 319 320 323 322 322 322 322 322 323 323 323 322 322 320 320 319 319 318 317 316 316 315 314 313 312 311 311 311 310 309 309 309 309 309 309 309 309 309
325 323 322 319 319 322 322 321 322 323 322 322 322 322 323 322 321 319 318 318 318 317 315 314 313 314 313 313 312 312 311 309 308 308 307 306 306 308 308 309 308 308 308
322 322 320 319 321 321 321 322 322 322 322 321 321 322 322 322 320 319 319 318 317 314 313 313 313 313 313 312 312 311 310 308 307 304 301 302 304 306 307 308 308 307 307
Wind_Speed
28 26 24 23 22 19 17 16 14 13 13 12 11 8 6 5 6 7 7 6 3 4 4 4 4 4 2 2 2 3 3 5 7 7 2 6 6 8 9 9 7 6 4
29 26 25 24 23 20 18 17 17 16 15 12 10 9 9 9 7 8 8 6 5 6 5 4 4 3 1 1 2 3 5 4 7 1 4 4 4 7 7 8 8 5 3
30 28 27 26 23 20 20 20 19 17 15 14 12 11 11 10 9 7 8 9 8 7 6 5 4 4 4 4 6 5 2 3 3 3 2 4 4 8 9 8 5 5 3
31 29 27 25 23 22 20 17 16 15 15 14 13 12 12 11 10 10 10 10 9 7 6 5 5 4 4 4 4 3 4 5 1 5 2 2 6 8 10 10 9 8 5
30 28 26 24 23 21 19 19 15 14 13 13 14 13 12 13 13 12 10 9 9 8 7 7 7 7 6 5 8 6 7 7 6 4 3 5 9 12 10 11 10 10 4
28 26 25 25 24 23 21 18 16 14 14 13 13 14 14 11 19 14 10 9 9 8 7 6 7 6 6 5 7 6 7 5 6 8 9 8 7 10 10 10 10 10 8
27 26 28 28 26 25 21 19 17 15 14 15 14 14 13 12 17 18 12 9 8 8 7 5 5 6 1 3 3 3 6 6 4 5 6 8 8 8 9 11 7 8 7
28 30 32 31 29 27 24 23 19 17 16 15 15 15 14 10 17 18 14 9 8 7 6 4 1 2 2 1 3 2 3 5 2 2 4 5 7 6 8 11 14 15 14
30 32 33 31 30 28 26 23 22 20 17 17 16 15 15 13 18 17 14 10 10 8 7 5 3 4 4 3 4 5 4 8 8 5 3 5 5 5 4 7 9 9 8
32 33 33 30 29 28 29 28 25 22 19 17 16 15 14 12 17 18 18 13 11 12 11 8 9 7 7 7 5 7 9 8 9 6 10 14 12 11 6 2 8 11 11
32 32 30 32 32 30 27 24 24 26 25 18 18 16 15 13 15 16 19 14 10 10 12 11 10 10 11 11 10 8 10 13 11 13 17 19 11 12 11 2 3 7 12
33 30 31 30 28 26 25 24 24 23 20 18 19 17 17 15 15 16 17 15 6 8 6 5 10 5 8 11 12 12 13 13 13 17 17 14 10 6 5 4 5 6 8
29 29 29 28 24 24 25 24 20 18 21 21 21 19 19 18 17 17 17 14 10 9 6 3 3 7 8 11 14 17 17 15 16 18 16 15 13 13 8 12 11 14 13
25 24 23 23 21 23 23 23 21 21 19 19 19 19 19 20 20 21 20 18 18 15 15 13 12 14 15 16 16 18 20 20 19 19 18 18 12 12 11 14 11 11 12
25 23 24 22 24 23 21 22 20 19 22 21 20 19 18 18 20 21 20 19 18 18 17 15 19 18 19 20 20 19 23 23 25 16 15 16 15 10 15 13 16 12 12
22 24 23 23 23 22 21 20 19 19 22 16 17 14 13 13 12 19 16 10 7 7 16 16 16 16 16 17 13 18 20 24 18 13 13 15 11 10 15 16 13 12 16
20 22 22 23 24 24 23 22 21 12 20 20 14 13 9 10 11 12 14 15 15 15 14 19 19 17 19 17 16 18 24 22 9 11 11 8 7 13 17 21 17 15 14
21 21 22 23 25 24 23 21 20 20 18 19 20 17 15 11 10 10 11 11 11 16 19 21 21 23 24 19 16 19 21 16 11 13 16 13 14 15 18 19 16 13 13
22 24 24 26 23 22 20 19 19 19 19 19 21 23 21 18 17 16 16 17 19 20 19 20 22 18 22 15 18 16 17 18 14 15 15 17 16 23 16 15 13 9 10
25 26 28 22 19 20 20 18 18 18 18 19 21 21 21 20 18 17 21 20 20 20 21 20 19 20 16 16 15 15 15 13 13 18 20 18 13 13 15 12 13 14 15
24 25 26 22 22 20 17 17 15 15 16 18 17 20 26 27 24 25 23 25 20 25 19 19 17 15 12 15 18 18 17 14 17 15 13 15 15 15 14 14 15 15 16
23 23 24 17 20 15 11 13 14 15 15 16 16 15 17 19 20 14 10 15 15 23 17 13 15 16 17 16 17 16 16 14 13 14 14 15 15 14 15 16 16 16 16
23 25 18 25 24 18 14 6 12 15 16 18 18 19 18 17 17 18 13 18 17 15 10 10 13 10 13 16 15 14 12 13 13 13 14 15 16 16 17 17 17 16 16
23 22 24 27 22 21 15 22 17 24 22 15 17 16 18 17 11 11 12 11 11 11 12 14 13 12 13 11 12 12 14 10 8 8 9 13 16 17 16 19 20 19 18
26 25 28 22 19 15 19 20 24 20 17 17 15 13 7 8 15 11 8 7 9 11 13 14 14 12 13 12 14 12 12 11 8 12 13 16 17 18 18 19 20 20 19
27 25 23 23 16 20 24 22 18 17 18 17 16 10 13 13 7 7 8 9 10 12 13 14 14 12 12 13 14 13 11 12 12 14 12 13 15 17 17 17 17 19 19
Wind_Direction
187 188 190 194 196 195 190 186 180 163 164 173 176 168 155 144 141 133 108 124 109 90 85 73 49 4 21 62 51 18 13 334 294 23 42 45 28 357 347 342 325 290 180
187 184 187 190 191 189 181 179 171 171 170 169 168 163 155 151 154 148 150 134 130 116 100 84 64 56 90 1 84 32 36 26 327 288 40 4 34 4 356 1 350 325 261
184 185 186 186 182 186 185 176 175 174 169 163 164 165 156 155 156 156 145 139 131 121 113 104 90 77 41 53 27 7 64 42 332 337 343 40 352 11 353 8 359 321 232
184 185 180 181 182 181 176 173 176 172 165 164 165 163 159 158 162 160 152 144 138 128 119 107 88 75 66 48 49 42 24 309 100 293 352 352 21 358 2 5 359 352 5
180 180 172 173 169 167 170 164 172 171 166 166 163 161 164 163 164 158 154 147 138 132 122 112 92 83 65 42 21 28 349 352 351 334 346 4 20 347 11 346 0 344 167
171 174 163 157 162 160 162 162 166 170 162 167 170 166 169 173 154 156 157 155 148 142 136 120 113 83 68 61 54 62 53 29 42 356 21 6 12 341 354 344 358 349 333
167 161 155 156 159 158 161 163 167 168 168 171 175 173 177 147 167 164 155 161 163 158 152 154 215 113 110 159 114 111 81 66 70 45 20 11 342 349 330 324 351 322 319
167 157 160 162 159 159 163 165 166 170 171 176 177 180 181 173 171 169 174 174 172 173 171 171 168 145 170 300 275 238 222 196 138 7 15 354 349 346 319 299 281 279 279
166 163 164 163 160 166 166 165 165 166 173 175 182 183 186 171 188 183 181 192 182 190 193 191 209 216 203 231 285 259 279 288 224 230 248 281 291 292 335 333 346 307 315
168 162 167 167 163 163 166 167 167 167 170 173 180 186 187 180 192 198 197 211 201 201 198 206 226 222 209 237 247 285 287 311 309 222 255 253 253 262 204 45 336 318 317
157 162 165 168 168 170 166 168 168 165 161 173 179 185 187 187 191 196 200 222 220 218 212 193 218 200 224 237 245 254 271 297 298 279 269 266 240 230 201 191 16 317 308
161 168 168 171 168 168 161 163 167 163 157 169 178 184 185 186 195 192 196 215 235 220 218 207 151 198 227 237 252 261 268 279 277 269 276 272 285 293 52 9 297 278 278
170 173 174 168 163 164 159 163 169 172 163 179 181 190 185 191 197 206 202 211 217 223 248 71 156 205 240 259 265 265 263 261 262 267 278 276 291 277 286 290 260 234 261
167 174 163 161 157 163 166 168 172 178 182 195 188 196 195 192 204 196 204 215 225 235 241 253 248 244 244 251 254 259 246 240 246 264 288 289 287 284 271 257 258 281 297
167 169 166 165 163 170 178 179 186 190 193 190 196 198 203 202 207 195 194 200 210 221 223 234 240 230 235 244 248 280 270 233 234 251 258 281 270 259 259 270 271 270 271
160 165 169 164 174 180 181 177 201 196 205 191 196 198 196 179 172 183 202 220 210 185 210 249 256 244 242 252 264 278 288 288 268 264 270 280 266 253 272 295 293 276 286
169 174 173 175 182 185 188 184 188 196 197 210 200 199 156 161 176 185 199 221 236 244 242 250 263 275 273 248 260 265 271 270 289 255 257 247 251 271 276 260 271 274 270
181 182 187 187 188 191 192 193 193 193 196 207 214 213 210 194 199 204 208 217 237 243 246 255 259 261 270 257 259 265 268 293 288 275 265 250 265 253 256 265 261 273 285
195 183 190 193 194 193 188 193 197 192 192 199 197 212 213 220 223 227 232 233 241 252 257 255 249 249 261 280 262 256 271 283 280 284 277 271 262 254 259 271 275 282 280
198 189 191 196 180 187 193 195 198 195 191 195 195 191 200 210 220 226 234 233 240 256 259 264 265 249 260 236 248 267 282 288 260 253 247 253 272 275 276 275 272 271 268
183 185 181 183 189 187 189 194 197 201 196 204 202 197 190 194 213 225 232 213 232 238 247 254 263 286 272 261 266 270 272 266 268 276 278 278 277 271 264 263 264 263 261
174 175 186 190 176 168 165 186 200 198 206 210 207 174 179 196 230 242 245 231 241 271 246 267 262 268 267 272 280 285 293 285 284 281 277 274 266 263 261 260 260 261 266
176 168 151 142 146 145 140 146 237 224 218 217 218 176 189 220 226 241 253 256 253 267 277 256 270 267 278 274 281 284 280 278 277 278 278 275 268 257 254 257 260 261 264
150 146 139 141 149 150 177 215 210 220 227 209 227 181 195 211 212 237 257 273 284 287 279 270 270 282 285 285 265 266 262 257 261 268 279 279 274 273 263 260 261 263 264
147 148 142 151 162 195 211 208 216 211 213 231 225 225 239 254 250 251 275 269 281 286 286 281 277 270 268 262 264 269 274 287 287 275 273 269 271 275 274 273 275 280 282
143 147 150 178 177 202 206 211 211 208 204 212 223 213 238 243 243 270 275 280 277 281 282 283 276 272 265 261 252 240 248 269 279 279 266 263 265 265 264 266 269 271 273